Time,TemperatureF,DewpointF,PressureIn,WindDirection,WindDirectionDegrees,WindSpeedMPH,WindSpeedGustMPH,Humidity,HourlyPrecipIn,Conditions,Clouds,dailyrainin,SolarRadiationWatts/m^2,SoftwareType,DateUTC
2013-05-16 00:01:00,38.0,36.0,-100.00,WSW,251,2.0,6.0,92,0.00,,,0.05,0.000000,,2013-05-16 06:01:00,
2013-05-16 00:33:00,35.0,34.0,-100.00,West,277,2.0,3.0,95,0.00,,,0.05,0.000000,,2013-05-16 06:33:00,
2013-05-16 00:43:00,35.0,34.0,-100.00,West,277,2.0,3.0,95,0.00,,,0.05,0.000000,,2013-05-16 06:43:00,
2013-05-16 00:53:00,35.0,34.0,-100.00,West,277,2.0,3.0,95,0.00,,,0.05,0.000000,,2013-05-16 06:53:00,
2013-05-16 01:02:00,35.0,34.0,-100.00,West,277,2.0,3.0,95,0.00,,,0.05,0.000000,,2013-05-16 07:02:00,
2013-05-16 01:34:00,34.0,33.0,-100.00,NNW,331,4.0,5.0,96,0.00,,,0.05,0.000000,,2013-05-16 07:34:00,
2013-05-16 01:44:00,34.0,33.0,-100.00,NNW,331,4.0,5.0,96,0.00,,,0.05,0.000000,,2013-05-16 07:44:00,
2013-05-16 01:54:00,34.0,33.0,-100.00,NNW,331,4.0,5.0,96,0.00,,,0.05,0.000000,,2013-05-16 07:54:00,
2013-05-16 02:03:00,34.0,33.0,-100.00,NNW,331,4.0,5.0,96,0.00,,,0.05,0.000000,,2013-05-16 08:03:00,
2013-05-16 02:35:00,33.0,31.0,-100.00,NW,325,2.0,8.0,94,0.00,,,0.05,0.000000,,2013-05-16 08:35:00,
2013-05-16 02:45:00,33.0,31.0,-100.00,NW,325,2.0,8.0,94,0.00,,,0.05,0.000000,,2013-05-16 08:45:00,
2013-05-16 02:55:00,33.0,31.0,-100.00,NW,325,2.0,8.0,94,0.00,,,0.05,0.000000,,2013-05-16 08:55:00,
2013-05-16 03:04:00,33.0,31.0,-100.00,NW,325,2.0,8.0,94,0.00,,,0.05,0.000000,,2013-05-16 09:04:00,
2013-05-16 03:35:00,32.0,31.0,-100.00,WNW,282,1.0,7.0,95,0.00,,,0.05,0.000000,,2013-05-16 09:35:00,
2013-05-16 03:45:00,32.0,31.0,-100.00,WNW,282,1.0,7.0,95,0.00,,,0.05,0.000000,,2013-05-16 09:45:00,
2013-05-16 03:55:00,32.0,31.0,-100.00,WNW,282,1.0,7.0,95,0.00,,,0.05,0.000000,,2013-05-16 09:55:00,
2013-05-16 04:05:00,32.0,31.0,-100.00,WNW,282,1.0,7.0,95,0.00,,,0.05,0.000000,,2013-05-16 10:05:00,
2013-05-16 04:36:00,32.0,31.0,-100.00,NNW,345,3.0,7.0,96,0.00,,,0.05,0.000000,,2013-05-16 10:36:00,
2013-05-16 04:45:00,32.0,31.0,-100.00,NNW,345,3.0,7.0,96,0.00,,,0.05,0.000000,,2013-05-16 10:45:00,
2013-05-16 04:56:00,32.0,31.0,-100.00,NNW,345,3.0,7.0,96,0.00,,,0.05,0.000000,,2013-05-16 10:56:00,
2013-05-16 05:05:00,32.0,31.0,-100.00,NNW,345,3.0,7.0,96,0.00,,,0.05,0.000000,,2013-05-16 11:05:00,
2013-05-16 05:35:00,33.0,32.0,-100.00,WNW,290,3.0,12.0,96,0.00,,,0.05,0.000000,,2013-05-16 11:35:00,
2013-05-16 05:46:00,33.0,32.0,-100.00,WNW,290,3.0,12.0,96,0.00,,,0.05,0.000000,,2013-05-16 11:46:00,
2013-05-16 05:57:00,33.0,32.0,-100.00,WNW,290,3.0,12.0,96,0.00,,,0.05,0.000000,,2013-05-16 11:57:00,
2013-05-16 06:06:00,33.0,32.0,-100.00,WNW,290,3.0,12.0,96,0.00,,,0.05,0.000000,,2013-05-16 12:06:00,
2013-05-16 06:35:00,30.0,29.0,-100.00,West,278,0.0,5.0,96,0.00,,,-99.99,3.000000,,2013-05-16 12:35:00,
2013-05-16 06:45:00,30.0,29.0,-100.00,West,278,0.0,5.0,96,0.00,,,-99.99,3.000000,,2013-05-16 12:45:00,
2013-05-16 06:53:00,30.0,29.0,-100.00,West,278,0.0,5.0,96,0.00,,,-99.99,3.000000,,2013-05-16 12:53:00,
2013-05-16 07:04:00,30.0,29.0,-100.00,West,278,0.0,5.0,96,0.00,,,-99.99,3.000000,,2013-05-16 13:04:00,
2013-05-16 07:35:00,36.0,34.0,-100.00,NNW,348,3.0,5.0,92,0.01,,,-99.99,92.000000,,2013-05-16 13:35:00,
2013-05-16 07:44:00,36.0,34.0,-100.00,NNW,348,3.0,5.0,92,0.01,,,-99.99,92.000000,,2013-05-16 13:44:00,
2013-05-16 07:55:00,36.0,34.0,-100.00,NNW,348,3.0,5.0,92,0.01,,,-99.99,92.000000,,2013-05-16 13:55:00,
2013-05-16 08:05:00,36.0,34.0,-100.00,NNW,348,3.0,5.0,92,0.01,,,-99.99,92.000000,,2013-05-16 14:05:00,
2013-05-16 08:08:00,42.0,35.0,-100.00,NNE,25,3.0,6.0,76,0.00,,,0.06,373.000000,,2013-05-16 14:08:00,
2013-05-16 08:37:00,42.0,35.0,-100.00,NNE,25,3.0,6.0,76,0.00,,,0.06,373.000000,,2013-05-16 14:37:00,
2013-05-16 08:47:00,42.0,35.0,-100.00,NNE,25,3.0,6.0,76,0.00,,,0.06,373.000000,,2013-05-16 14:47:00,
2013-05-16 08:56:00,42.0,35.0,-100.00,NNE,25,3.0,6.0,76,0.00,,,0.06,373.000000,,2013-05-16 14:56:00,
2013-05-16 09:08:00,50.0,37.0,-100.00,NNE,22,2.0,5.0,61,0.00,,,0.06,585.000000,,2013-05-16 15:08:00,
2013-05-16 09:40:00,50.0,37.0,-100.00,NNE,22,2.0,5.0,61,0.00,,,0.06,585.000000,,2013-05-16 15:40:00,
2013-05-16 09:50:00,50.0,37.0,-100.00,NNE,22,2.0,5.0,61,0.00,,,0.06,585.000000,,2013-05-16 15:50:00,
2013-05-16 10:00:00,50.0,37.0,-100.00,NNE,22,2.0,5.0,61,0.00,,,0.06,585.000000,,2013-05-16 16:00:00,
2013-05-16 10:08:00,56.0,32.0,-100.00,SSE,148,3.0,7.0,40,0.00,,,0.06,815.000000,,2013-05-16 16:08:00,
2013-05-16 10:40:00,56.0,-99.9,-100.00,SSE,148,3.0,7.0,40,0.00,,,0.06,815.000000,,2013-05-16 16:40:00,
2013-05-16 10:51:00,56.0,32.0,-100.00,SSE,148,3.0,7.0,40,0.00,,,0.06,815.000000,,2013-05-16 16:51:00,
2013-05-16 11:01:00,56.0,32.0,-100.00,SSE,148,3.0,7.0,40,0.00,,,0.06,815.000000,,2013-05-16 17:01:00,
2013-05-16 11:08:00,60.0,24.0,-100.00,WNW,292,6.0,15.0,25,0.00,,,-99.99,999.000000,,2013-05-16 17:08:00,
2013-05-16 11:40:00,60.0,24.0,-100.00,WNW,292,6.0,15.0,25,0.00,,,-99.99,999.000000,,2013-05-16 17:40:00,
2013-05-16 11:50:00,-999.0,-99.9,-100.00,WNW,292,6.0,15.0,25,0.00,,,-99.99,999.000000,,2013-05-16 17:50:00,
2013-05-16 12:00:00,-999.0,-99.9,-100.00,WNW,292,6.0,15.0,25,0.00,,,-99.99,999.000000,,2013-05-16 18:00:00,
2013-05-16 12:08:00,60.0,22.0,-100.00,NNW,330,5.0,14.0,23,0.00,,,-99.99,932.000000,,2013-05-16 18:08:00,
2013-05-16 12:41:00,-999.0,-99.9,-100.00,NNW,330,5.0,14.0,23,0.00,,,-99.99,932.000000,,2013-05-16 18:41:00,
2013-05-16 12:50:00,-999.0,-99.9,-100.00,NNW,330,5.0,14.0,23,0.00,,,-99.99,932.000000,,2013-05-16 18:50:00,
2013-05-16 13:00:00,-999.0,-99.9,-100.00,NNW,330,5.0,14.0,23,0.00,,,-99.99,932.000000,,2013-05-16 19:00:00,
2013-05-16 13:08:00,-999.0,-99.9,-100.00,WNW,286,4.0,14.0,25,0.00,,,0.06,673.000000,,2013-05-16 19:08:00,
2013-05-16 13:40:00,59.0,-99.9,-100.00,WNW,286,4.0,14.0,25,0.00,,,0.06,673.000000,,2013-05-16 19:40:00,
2013-05-16 13:51:00,-999.0,-99.9,-100.00,WNW,286,4.0,14.0,25,0.00,,,0.06,673.000000,,2013-05-16 19:51:00,
2013-05-16 14:01:00,-999.0,-99.9,-100.00,WNW,286,4.0,14.0,25,0.00,,,0.06,673.000000,,2013-05-16 20:01:00,
2013-05-16 14:08:00,64.0,-99.9,-100.00,NNW,343,8.0,19.0,21,0.00,,,0.05,1088.000000,,2013-05-16 20:08:00,
2013-05-16 14:41:00,-999.0,-99.9,-100.00,NNW,343,8.0,19.0,21,0.00,,,0.05,1088.000000,,2013-05-16 20:41:00,
2013-05-16 14:51:00,64.0,23.0,-100.00,NNW,343,8.0,19.0,21,0.00,,,0.05,1088.000000,,2013-05-16 20:51:00,
2013-05-16 15:00:00,64.0,-99.9,-100.00,NNW,343,8.0,19.0,21,0.00,,,0.05,1088.000000,,2013-05-16 21:00:00,
2013-05-16 15:08:00,64.0,24.0,-100.00,NW,316,7.0,15.0,22,0.00,,,0.05,1200.000000,,2013-05-16 21:08:00,
2013-05-16 16:00:00,-999.0,-99.9,-100.00,NW,316,7.0,15.0,22,0.00,,,0.05,1200.000000,,2013-05-16 22:00:00,
2013-05-16 16:40:00,63.0,18.0,-100.00,SW,223,8.0,19.0,17,0.00,,,0.05,1014.000000,,2013-05-16 22:40:00,
2013-05-16 16:51:00,63.0,18.0,-100.00,SW,223,8.0,19.0,17,0.00,,,0.05,1014.000000,,2013-05-16 22:51:00,
2013-05-16 17:01:00,63.0,18.0,-100.00,SW,223,8.0,19.0,17,0.00,,,0.05,1014.000000,,2013-05-16 23:01:00,
2013-05-16 17:06:00,63.0,18.0,-100.00,SW,223,8.0,19.0,17,0.00,,,0.05,1014.000000,,2013-05-16 23:06:00,
2013-05-16 17:35:00,63.0,16.0,-100.00,WNW,289,6.0,22.0,16,0.00,,,0.04,835.000000,,2013-05-16 23:35:00,
2013-05-16 17:45:00,63.0,16.0,-100.00,WNW,289,6.0,22.0,16,0.00,,,0.04,835.000000,,2013-05-16 23:45:00,
2013-05-16 17:54:00,63.0,16.0,-100.00,WNW,289,6.0,22.0,16,0.00,,,0.04,835.000000,,2013-05-16 23:54:00,
2013-05-16 18:02:00,63.0,16.0,-100.00,WNW,289,6.0,22.0,16,0.00,,,0.04,835.000000,,2013-05-17 00:02:00,
2013-05-16 18:33:00,62.0,17.0,-100.00,SW,223,4.0,14.0,17,0.00,,,-99.99,581.000000,,2013-05-17 00:33:00,
2013-05-16 18:44:00,62.0,17.0,-100.00,SW,223,4.0,14.0,17,0.00,,,-99.99,581.000000,,2013-05-17 00:44:00,
2013-05-16 18:53:00,62.0,17.0,-100.00,SW,223,4.0,14.0,17,0.00,,,-99.99,581.000000,,2013-05-17 00:53:00,
2013-05-16 19:03:00,62.0,17.0,-100.00,SW,223,4.0,14.0,17,0.00,,,-99.99,581.000000,,2013-05-17 01:03:00,
2013-05-16 19:32:00,58.0,23.0,-100.00,North,357,6.0,13.0,26,0.00,,,0.02,297.000000,,2013-05-17 01:32:00,
2013-05-16 19:44:00,58.0,23.0,-100.00,North,357,6.0,13.0,26,0.00,,,0.02,297.000000,,2013-05-17 01:44:00,
2013-05-16 19:52:00,58.0,23.0,-100.00,North,357,6.0,13.0,26,0.00,,,0.02,297.000000,,2013-05-17 01:52:00,
2013-05-16 20:02:00,58.0,23.0,-100.00,North,357,6.0,13.0,26,0.00,,,0.02,297.000000,,2013-05-17 02:02:00,
2013-05-16 20:33:00,51.0,25.0,-100.00,WNW,295,3.0,11.0,36,0.00,,,0.01,39.000000,,2013-05-17 02:33:00,
2013-05-16 20:42:00,51.0,25.0,-100.00,WNW,295,3.0,11.0,36,0.00,,,0.01,39.000000,,2013-05-17 02:42:00,
2013-05-16 20:53:00,51.0,25.0,-100.00,WNW,295,3.0,11.0,36,0.00,,,0.01,39.000000,,2013-05-17 02:53:00,
2013-05-16 21:02:00,51.0,25.0,-100.00,WNW,295,3.0,11.0,36,0.00,,,0.01,39.000000,,2013-05-17 03:02:00,
2013-05-16 21:34:00,46.0,25.0,-100.00,SSE,167,1.0,5.0,43,0.00,,,0.01,1.000000,,2013-05-17 03:34:00,
2013-05-16 21:43:00,46.0,25.0,-100.00,SSE,167,1.0,5.0,43,0.00,,,0.01,1.000000,,2013-05-17 03:43:00,
2013-05-16 21:53:00,46.0,25.0,-100.00,SSE,167,1.0,5.0,43,0.00,,,0.01,1.000000,,2013-05-17 03:53:00,
2013-05-16 22:02:00,46.0,25.0,-100.00,SSE,167,1.0,5.0,43,0.00,,,0.01,1.000000,,2013-05-17 04:02:00,
2013-05-16 22:34:00,43.0,27.0,-100.00,NNW,330,3.0,6.0,52,0.00,,,0.01,0.000000,,2013-05-17 04:34:00,
2013-05-16 22:43:00,43.0,27.0,-100.00,NNW,330,3.0,6.0,52,0.00,,,0.01,0.000000,,2013-05-17 04:43:00,
2013-05-16 22:53:00,43.0,27.0,-100.00,NNW,330,3.0,6.0,52,0.00,,,0.01,0.000000,,2013-05-17 04:53:00,
2013-05-16 23:03:00,43.0,27.0,-100.00,NNW,330,3.0,6.0,52,0.00,,,0.01,0.000000,,2013-05-17 05:03:00,
2013-05-16 23:32:00,41.0,27.0,-100.00,North,352,2.0,4.0,58,0.00,,,0.01,0.000000,,2013-05-17 05:32:00,
2013-05-16 23:43:00,41.0,27.0,-100.00,North,352,2.0,4.0,58,0.00,,,0.01,0.000000,,2013-05-17 05:43:00,
2013-05-16 23:52:00,41.0,27.0,-100.00,North,352,2.0,4.0,58,0.00,,,0.01,0.000000,,2013-05-17 05:52:00,